Regional Weather Roundup
Issued by NWS

Home | Current Version | Previous Version | Text Only | Print | Product List | Glossary On
Versions: 1 2 3 4 5 6 7 8 9 10 11 12 13 14 15 16 17 18 19 20 21 22 23 24 25 26 27 28 29 30 31 32 33 34 35 36 37 38 39 40 41 42 43 44 45 46 47 48 49 50
000
ASUS43 KMKX 280400
RWRWI

WISCONSIN REGIONAL WEATHER ROUNDUP
NATIONAL WEATHER SERVICE MILWAUKEE/SULLIVAN WI
1100 PM CDT MON JUL 27 2015

NOTE: "FAIR" INDICATES FEW OR NO CLOUDS BELOW 12,000 FEET WITH NO
SIGNIFICANT WEATHER AND/OR OBSTRUCTIONS TO VISIBILITY.

WIZ001-002-006>008-014>016-023>028-280500-
NORTHWEST WISCONSIN

CITY           SKY/WX    TMP DP  RH WIND       PRES   REMARKS
SUPERIOR ARPT  CLEAR     69  68  96 CALM      29.94R
ASHLAND        CLEAR     63  62  97 CALM      29.97S
HAYWARD        CLEAR     74  63  68 SE6       29.98S
SIREN          CLEAR     75  67  75 SE5       29.94S
CUMBERLAND     CLEAR     72  64  78 E7        29.96F
RICE LAKE      CLEAR     74  66  78 E6        29.98S
CHETEK         CLEAR     74  69  83 MISG      29.97S
LADYSMITH      MOCLDY    73  65  75 SE5       30.01S
EAU CLAIRE     NOT AVBL
MENOMONIE      CLEAR     73  70  89 SE5       29.96R
NEW RICHMOND   CLEAR     73  68  84 SE7       29.94S
OSCEOLA        CLEAR     76  69  80 SE9       29.95S
$$

WIZ003>005-009-010-017-018-280500-
NORTH CENTRAL WISCONSIN

CITY           SKY/WX    TMP DP  RH WIND       PRES   REMARKS
MANITOWISH WTR CLEAR     64  64 100 CALM      30.04R
ARBOR VITAE    CLEAR     71  64  80 CALM      30.04S
WOODRUFF       CLEAR     71  64  80 CALM      30.04S
RHINELANDER    CLEAR     70  61  73 SE3       30.05F
EAGLE RIVER    CLEAR     69  59  71 S3        30.05S
LAND O LAKES   CLEAR     66  61  82 CALM      30.06R
PHILLIPS       CLEAR     70  64  79 E3        30.02R
TOMAHAWK       CLEAR     66  61  84 CALM      30.04S
MEDFORD        CLEAR     70  63  79 SE5       30.02S
MERRILL        NOT AVBL
$$

WIZ029-030-035-036-043>047-280500-
CENTRAL WISCONSIN

CITY           SKY/WX    TMP DP  RH WIND       PRES   REMARKS
WAUSAU         CLEAR     72  65  78 E3        30.01S
MOSINEE        CLEAR     68  63  83 E3        30.04S
MARSHFIELD     CLEAR     72  62  71 SE6       30.01S
STEVENS POINT  CLEAR     66  63  89 E3        30.03S
WAUPACA        CLEAR     69  67  91 CALM      30.02S
WAUTOMA        NOT AVBL
WISC RAPIDS    CLEAR     74  61  63 SE6       30.02S
CAMP DOUGLAS   NOT AVBL
$$

WIZ011>013-019>022-031-037>040-048>050-280500-
NORTHEAST WISCONSIN

CITY           SKY/WX    TMP DP  RH WIND       PRES   REMARKS
ANTIGO         CLEAR     64  62  90 SE7       30.05F
SHAWANO        CLEAR     74  65  71 CALM      30.03R
OCONTO         CLEAR     66  66 100 CALM      30.02R
STURGEON BAY   CLEAR     66  57  72 S5        30.05R
GREEN BAY      CLEAR     65  62  90 CALM      30.02R
MANITOWOC      NOT AVBL
APPLETON       MOCLDY    73  61  64 VRB3      30.04R
CLINTONVILLE   CLEAR     70  63  78 CALM      30.02S
OSHKOSH        CLEAR     68  62  81 S3        30.02R
$$

WIZ032>034-041-042-053>061-280500-
SOUTHWEST WISCONSIN

CITY           SKY/WX    TMP DP  RH WIND       PRES   REMARKS
LA CROSSE      CLEAR     76  70  82 E7        29.95S
SPARTA         CLEAR     70  67  90 E3        29.99R
VIROQUA        CLEAR     72  69  90 SE3       30.00S
BOSCOBEL       MOCLDY    72  70  93 CALM      29.98S
PRAIRIE DU CHI MOCLDY    75  69  80 E6        29.96S
PLATTEVILLE    MOCLDY    74  71  91 E7        30.00S
$$

WIZ056-057-062-063-064-067-068-280500-
SOUTH CENTRAL WISCONSIN

CITY           SKY/WX    TMP DP  RH WIND       PRES   REMARKS
REEDSBURG      PTCLDY    73  66  80 CALM      30.00R
BARABOO/DELLS  PTCLDY    73  62  69 SE6       30.00S
LONE ROCK      NOT AVBL
MINERAL POINT  MOCLDY    75  68  78 SE6       30.02R
MADISON        PTCLDY    75  64  68 SE8       30.01R
MIDDLETON      PTCLDY    75  63  65 SE6       30.02R
WATERTOWN      CLEAR     67  64  88 CALM      30.02R
MONROE         MOCLDY    73  63  68 SE7       30.01R
JANESVILLE     MOCLDY    72  63  73 CALM      30.01S
$$

WIZ051-052-058>065-066-070>072-280500-
SOUTHEAST WISCONSIN

CITY           SKY/WX    TMP DP  RH WIND       PRES   REMARKS
MILWAUKEE      MOCLDY    72  66  81 SE3       30.03R
WAUKESHA       PTCLDY    68  59  73 CALM      30.04R
MILWAUKEE/TIMM CLEAR     72  63  73 CALM      30.03S
RACINE         PTCLDY    71  66  84 E6        30.04S
BURLINGTON     PTCLDY    64  62  94 CALM      30.03R
KENOSHA        MOCLDY    68  65  90 E6        30.03R
FOND DU LAC    CLEAR     68  62  81 S3        30.02S
SHEBOYGAN      CLEAR     64  61  90 CALM      30.03R
WEST BEND      CLEAR     64  61  88 CALM      30.03S
JUNEAU           N/A     67  63  87 CALM      30.04S
$$

LSZ147-162-280500-
LAKE SUPERIOR

STATION/POSITION TIME  TEMP    WIND        PRES    WAVE
                       AIR SEA DIR/SP/G            HT/PER
                 (UTC) (F)     (DEG/KT/KT) (MB)    (FT/S)
W MID LAKE BUOY  0250   65 63  110/  8/  8 1014.3R   0
DEVILS ISLAND    0300   72     130/ 11/ 12 1014.1R
PORT WING        0300   76     150/  4/  8 1013.9S
SAXON HARBOR     0300   70                 1014.2R
$$

LMZ867-665-643>646-280500-
LAKE MICHIGAN

STATION/POSITION TIME  TEMP    WIND        PRES    WAVE
                       AIR SEA DIR/SP/G            HT/PER
                 (UTC) (F)     (DEG/KT/KT) (MB)    (FT/S)
CHAMBERS ISLAND  0300   70      CALM  /  2 1015.9S
S GREEN BAY BUOY 0330   78 76  180/  8/ 10 1017.6R
N MID LAKE BUOY  0250   72 70  230/  2/  2 1016.3R   0
NORTHPORT PIER   0300   72     190/  3/  6 1016.3R
SISTER BAY       0314   74     170/  4/  5   N/A
ALGOMA LAKESHORE 0327             CALM       N/A
KEWAUNEE LAKESHO 0300   68      CALM  /  1 1015.7F
SHEBOYGAN LAKESH 0300   73     130/  4/  5 1016.5R
PORT WASHINGTON  0300   73      CALM  /  2 1016.9R
ATWATER BUOY     0300   73     110/  4/  4 1017.9R
MILWAUKEE LAKESH 0300   72      70/  5/  6   N/A
KENOSHA   LAKESH 0300   73      50/  3/  5 1016.3R
$$

TC  - TEMPERATURE IN CELSIUS
VSB - VISIBILITY IN STATUTE MILES
WCI - WIND CHILL INDEX
HX  - HEAT INDEX



USA.gov is the U.S. government's official web portal to all federal, state and local government web resources and services.